User: anonymous   Login
Location: Vale
(35.4830°N, 81.3830°W)
Time: 19:37:55
(UTC-05:00)
Language:

Cosmos 2237 Rocket - Orbit

View from above orbital plane
View from above orbital plane
View from above satellite
View from above satellite

Ground track
Ground track

The orbit data is extracted from the following two-line orbital elements,

1 22566U 93016B   17051.13553030 -.00000175  00000-0 -65646-4 0  9990
2 22566  71.0082 312.6252 0012112 303.9586  56.0385 14.14940191234711
Epoch (UTC): 20 February 2017 03:15:09
Eccentricity: 0.0012112
inclination: 71.0082°
perigee height: 834 km
apogee height: 851 km
right ascension of ascending node: 312.6252°
argument of perigee: 303.9586°
revolutions per day: 14.14940191
mean anomaly at epoch: 56.0385°
orbit number at epoch: 23471

The dashed part of the orbit path shows where the satellite is in the earth's shadow,  

DLR